Simultaneous Nadir Overpasses (SNOs) Predictions

Prediction of SNOs between NOAA-20 and AQUA Satellite Orbit:

Table of predicted SNOs for the next 14.0 days since TLE Epoch: 12/2/2017
Index Date (NOAA-20) Time (NOAA-20) Lat,Lon (NOAA-20) SZA (NOAA-20 ) Date (AQUA) Time (AQUA) Lat,Lon (AQUA) SZA (AQUA ) Distance(km) Time Diff (sec)
1 12/02/2017 21:29:34 76.13, 97.00 118.02 12/02/2017 21:30:01 76.13, 96.95 118.00 1.30 27
2 12/02/2017 22:19:54 -77.07, -92.10 63.08 12/02/2017 22:19:09 -77.07, -92.17 63.02 1.99 45
3 12/05/2017 17:03:26 75.09, 160.34 119.59 12/05/2017 17:04:37 75.10, 160.42 119.50 2.60 71
4 12/05/2017 17:53:41 -76.32, -28.39 61.77 12/05/2017 17:53:40 -76.32, -28.34 61.78 1.39 1
5 12/05/2017 18:43:57 77.34, 143.00 117.04 12/05/2017 18:42:44 77.33, 142.93 117.12 1.72 73
6 12/08/2017 13:27:20 -75.90, 36.80 60.92 12/08/2017 13:28:04 -75.89, 36.74 60.95 1.59 44
7 12/08/2017 14:17:44 76.57,-153.47 118.31 12/08/2017 14:17:15 76.59,-153.38 118.31 2.70 29
8 12/11/2017 09:51:23 76.10, -88.54 119.17 12/11/2017 09:51:39 76.10, -88.52 119.15 0.69 16
9 12/11/2017 10:41:39 -77.23, 83.15 62.16 12/11/2017 10:40:43 -77.22, 83.04 62.08 2.89 56
10 12/14/2017 05:25:03 75.61, -23.52 119.98 12/14/2017 05:26:04 75.60, -23.58 119.94 1.72 61
11 12/14/2017 06:15:25 -76.51, 146.89 61.04 12/14/2017 06:15:13 -76.51, 146.90 61.03 0.16 12




NCC Satellite Simultaneous Nadir Overpasses (SNOs) Prediction Service
